Location: Atherton
(17.2661°S, 145.4859°E)
Time: 18:38:44
(UTC+10:00)

ACS3 Solar Sail - Pass Details

Date: 25 May 2025
Orbit: 920 x 1019 km, 97.5° (Epoch: 20 June)

Event Time Altitude Azimuth Distance (km) Brightness Sun altitude
Rises 04:26:08 0° 45° (NE) 3,554 5.6 -30.9°
Reaches altitude 10° 04:29:07 10° 60° (ENE) 2,627 4.9 -30.2°
Maximum altitude 04:33:25 21° 107° (ESE) 1,958 3.9 -29.2°
Drops below altitude 10° 04:37:46 10° 154° (SSE) 2,682 4.2 -28.2°
Sets 04:40:50 0° 169° (S) 3,650 4.8 -27.5°
